Regional Weather Roundup
Issued by NWS Wakefield, VA

Home | Current Version | Previous Version | Graphics & Text | Print | Product List | Glossary On
Versions: 1 2 3 4 5 6 7 8 9 10 11 12 13 14 15 16 17 18 19 20 21 22 23 24 25 26 27
000
ASUS41 KAKQ 251015
RWRAKQ

REGIONAL WEATHER ROUNDUP
NATIONAL WEATHER SERVICE WAKEFIELD VA
600 AM EDT WED MAY 25 2016

Note: "fair" indicates few or no clouds below 12,000 feet with no
significant weather and/or obstructions to visibility. * = Denotes
station may not report precipitation (e.g., rain,snow,etc.),
thunder or fog.

VAZ042-051-052>054-056-251100-
NORTHERN VIRGINIA

CITY           SKY/WX    TMP DP  RH WIND       PRES   REMARKS
WASH NATIONAL  FAIR      62  58  86 CALM      30.12R
DULLES         FAIR      53  51  93 S3        30.12R
FORT BELVOIR   FAIR      53  52  96 CALM      30.11R FOG
QUANTICO       FAIR      59  53  80 NW6       30.13R
FREDERICKSBRG* FAIR      55  55 100 CALM      30.12R
STAFFORD*      FAIR      55  51  88 CALM      30.16R
WARRENTON      FAIR      54  49  83 CALM      30.13R
CULPEPER*      FAIR      53  53 100 CALM      30.14S FOG
MANASSAS*      FAIR      52  52 100 CALM      30.13R
LEESBURG*      FAIR      59  54  82 S6        30.13R
WINCHESTER     FAIR      59  50  72 SW5       30.15R
FRONT ROYAL*   FAIR      57  52  82 S8        30.14R
LURAY*         FAIR      50  50 100 CALM      30.18R
$$

VAZ048-049-060>072-079>083-251100-
CENTRAL AND SOUTH CENTRAL VIRGINIA

CITY           SKY/WX    TMP DP  RH WIND       PRES   REMARKS
RICHMOND       FAIR      61  55  81 W3        30.13R
CHESTERFIELD*  FAIR      57  45  62 CALM      30.15R
PETERSBURG*    FAIR      58  58 100 CALM      30.15R
HANOVER        FAIR      57  53  86 CALM      30.15R
TAPPAHANNOCK*  FAIR      55  55 100 CALM      30.13R
QUINTON*       FAIR      56  55  99 CALM      30.13R
CHARLOTTSVILLE FAIR      55  50  83 CALM      30.15R
GORDONSVILLE*  FAIR      53  53  98 SW5       30.14R
ORANGE*        FAIR      59  52  77 CALM      30.15R
LOUISA*        FAIR      57  54  88 W3        30.13R
BUMPASS*       FAIR      54  54  97 CALM      30.14R
FARMVILLE*     FAIR      54  54 100 CALM      30.15R FOG
CREWE*         FAIR      56  56 100 CALM      30.15R
FORT PICKETT*  NOT AVBL
CHASE CITY*    FAIR      57  56  94 CALM      30.16S
CLARKSVILLE*   FAIR      57  57 100 CALM      30.16R
SOUTH HILL*    FAIR      61  55  81 CALM      30.21S
LAWRENCEVILLE* FAIR      58  55  91 CALM      30.15S
EMPORIA*         N/A     54  54 100 CALM      30.18R
$$

VAZ088>098-251100-
SOUTHEAST VIRGINIA

CITY           SKY/WX    TMP DP  RH WIND       PRES   REMARKS
NORFOLK        FAIR      64  55  72 SW8       30.13S
VIRGINIA BEACH FAIR      66  55  67 SW8       30.13S
NORFOLK NAVAL  FAIR      66  56  70 SW8       30.14S
WEST POINT*    FAIR      56  56  97 CALM      30.14R
SALUDA*        FAIR      59  57  94 CALM      30.12R
NEWPORT NEWS   FAIR      64  57  78 SW8       30.14R
LANGLEY AFB    FAIR      63  57  80 SW7       30.13R
FORT EUSTIS    FAIR      64  53  67 W3        30.12R
WILLIAMSBURG*  FAIR      61  57  88 CALM      30.15R
HR EXEC AP*    FAIR      61  55  82 W3        30.17R
FRANKLIN*      FAIR      59  55  87 CALM      30.16R
US460-WAKEFLD  FAIR      57  54  89 CALM      30.15R
$$

VAZ020-022-025-037-045-251100-
WEST CENTRAL AND SOUTHWEST VIRGINIA

CITY           SKY/WX    TMP DP  RH WIND       PRES   REMARKS
STAUNTON*      FAIR      47  46  96 CALM      30.21R
WAYNESBORO*    FAIR      49  47  92 CALM      30.19S
HOT SPRINGS VA FAIR      56  46  67 W3        30.26R
LYNCHBURG      FAIR      52  51  97 CALM      30.19R
DANVILLE       FAIR      53  53 100 CALM      30.18R
SOUTH BOSTON*    N/A     55  53  95 CALM      30.17R
MARTINSVILLE   FAIR      47  47 100 CALM      30.22R
ROANOKE        FAIR      54  50  86 NW3       30.23R
BLACKSBURG     FAIR      50  49  99 CALM      30.28R
DUBLIN*        FAIR      51  50  97 CALM      30.26R
MARION*        FAIR      48  46  95 CALM      30.28S FOG
HILLSVILLE*    FAIR      51  49  92 SW6       30.25R
RICHLANDS*     FAIR      55  43  64 CALM      30.25R
WISE*          FAIR      55  43  62 CALM      30.25R
ABINGDON*      FAIR      54  49  86 SE3       30.24R
$$

MDZ021>025-VAZ099-100-251100-
SOUTHERN MARYLAND AND THE DELMARVA PENINSULA

CITY           SKY/WX    TMP DP  RH WIND       PRES   REMARKS
PATUXENT RIVER PTCLDY    59  54  83 W8        30.11R
BAY BRIDGE APT CLEAR     64  54  68 W3        30.10R
LEONARDTOWN    CLEAR     59  54  82 CALM      30.13R
DOVER          CLEAR     60  56  88 SW5       30.07R
GEORGETOWN     CLEAR     62  55  77 W5        30.10R
EASTON         CLEAR     59  59 100 CALM      30.14R
CAMBRIDGE        N/A     54  52  94 CALM      30.10R
SALISBURY      CLEAR     59  56  89 CALM      30.10R
OCEAN CITY     CLEAR     63  56  78 NW6       30.10R
WALLOPS ISLAND FAIR      66  59  78 W8        30.12R
ACCOMACK*      FAIR      63  55  77 W6        30.12R
$$

NCZ012>017-030>032-251100-
NORTH CENTRAL AND EASTERN NORTH CAROLINA

CITY           SKY/WX    TMP DP  RH WIND       PRES   REMARKS
ROANOKE RAPIDS FAIR      57  54  88 SW6       30.16S
RALEIGH        PTCLDY    62  55  77 SW3       30.18S
ELIZABETH CITY CLEAR     62  58  86 SW7       30.16R
AHOSKIE*       CLEAR     58  55  89 CALM      30.17R
EDENTON*       CLEAR    N/A N/A N/A W7        30.17S
CURRITUCK*     CLEAR     64  58  81 SW6       30.16S
KILL DEVIL HLS CLEAR     65  59  79 CALM      30.15R
MANTEO         CLEAR     64  61  88 W5        30.17R
CAPE HATTERAS  CLEAR     68  62  81 W7        30.18R
TARBORO*       FAIR      58  56  92 CALM      30.18S
GOLDSBORO      CLEAR     61  61 100 SW5       30.17S
WASHINGTON     CLEAR     59  56  89 SW3       30.18S
GREENVILLE     CLEAR     59  59 100 CALM      30.19S
NEW BERN       CLEAR     60  56  86 CALM      30.20R
WILMINGTON     PTCLDY    60  58  92 CALM      30.20R
$$

VAZ048-251100-
ELSEWHERE

CITY           SKY/WX    TMP DP  RH WIND       PRES   REMARKS
HARRISBURG PA  PTCLDY    58  49  72 NW6       30.08R
BALTIMORE      PTCLDY    61  49  64 W3        30.09R
ANNAPOLIS      CLEAR     63  51  65 W5        30.09R
ANDREWS AFB    FAIR      59  51  74 CALM      30.11R
PHILADELPHIA   PTCLDY    59  51  75 SW5       30.07R
HENDERSON NC   CLEAR     56  53  89 SW5       30.17S
GREENSBORO     PTCLDY    57  55  93 S6        30.18R
ROCKY MOUNT    PTCLDY    58  56  93 S5        30.17S
$$

VAZ100-251100-
MARINE

STATION/POSITION TIME  TEMP    WIND        PRES    WAVE   SWELL
                       AIR SEA DIR/SP/G            HT/PER HT/PER
                 (UTC) (F)     (DEG/KT/KT) (MB)    (FT/S) (FT/S)
BRANDYWINE LGT   0900   65     270/ 12/ 12 1017.9R
CAPE MAY NJ      0900   63 65  270/  6/  7 1017.7R
LEWES DE         0900   66 60  260/  6/  8 1018.0R
15NM E FENWICK I 0950   60 56              1018.7R   2/ 9
OCEAN-CITY-INLET 0900   66 60  290/ 10/ 12 1017.6R
WACHAPREAGUE VA  0900   66 69  260/  3/  5 1019.0R
THOMAS POINT MD  1000   67 63  290/ 13/ 14 1020.3R
GOOSES REEF MD   1000   66 64  280/  8/  8 1020.3R   1
COVE POINT MD    0900   68     300/  8/ 10 1019.3R
SOLOMONS ISLAND  0900   61 63   CALM  /  1   N/A
BISHOPS HEAD MD  0900   66 68  270/  6/  6 1019.1R
PINEY POINT MD   0900          290/  2/  3   N/A
POTOMAC MD       1000   64 63  280/  6/  6 1018.8R   0
CAMBRIDGE MD     0900   65 64  250/  2/  3 1017.7R
LEWISETTA VA     0900   65 66  260/  5/  6 1019.0R
RAPPAHANNOCK LGT 0900          210/  9/ 12 1020.0R
STINGRAY PT      1000   66 65  270/  8/ 10 1020.1R   0
YORK RVR RNG VA  0900   68     250/ 10/ 11 1019.0R
YORKTOWN VA      0900   67 66  230/  9/ 11 1019.4R
JAMESTOWN VA     1000   64 68  250/  4/  6   N/A     0
DOMINION TERM VA 0900   68     250/  7/  9 1020.3R
KIPTOPEKE VA     0900      65  240/  9/ 12   N/A
CHES BAY BRIDGE  0900   68 65  210/ 12/ 12 1020.0R
CAPE HENRY VA    0900   68     230/ 11/ 15   N/A
CHESAPEAKE LGHT  0900   66     250/ 17/ 17 1020.4R
WILLOUBY STN VA  0900   67     230/  9/  9 1021.1R
CAPE HENRY BUOY  0912      61                N/A     2/ 9
1ST LANDING BUOY 1000   66 64  210/ 10/ 10 1020.3R   1/ 3
CAPE CHARLES BUO 0926      62                N/A     2/ 9   2/ 9
OFFSHORE WE BUOY 0921      58                N/A     2/ 8   2/ 8
64NM E OF VA BCH 0950   61 56  250/ 10/ 12 1020.2R   3/ 6   3/ 6
DUCK PIER NC     0900   67 61  250/ 10/ 13 1020.3R
44100 DUCK FRF   0924      62                N/A     2/ 9
44056 DUCK FRF   0911      62                N/A     2/ 9
OREGON INLET NC  0900   67 70  250/  9/ 12 1020.9R
HATTERAS NC      0900   68 68  270/  9/ 11 1021.1R
DIAMOND SHLS NC  0950   67 67  270/  8/  8 1022.2R   3/ 5   3/ 5
CAPE LOOKOUT NC1F1C2F2C3F3C4F4C5F5C6F6C7F7C8M1C9!



USA.gov is the U.S. government's official web portal to all federal, state and local government web resources and services.